Weather in Borodulikha

Kazakhstan     50°42′48″N   80°56′10″E
temp.,
°C
wind,
m/s
gust,
m/s
humid.,
%
clouds,
%
prec.,
mm/h
press.,
hPa
HPBL,
m
16 may, sun
sun1600:00+14sw22550 0.0 102112
03:00+13wsw22535 0.0 102111
06:00+14w22515 0.0 102114
09:00+21wsw23330 0.0 1020561
12:00+25wnw33275 0.0 10192020
15:00+26wnw33265 0.0 10172585
18:00+26w232613 0.0 10152503
21:00+19sw33390 0.0 101539
17 may, mon
mon1700:00+18sw4742100 0.1 101597
03:00+15nnw116079 0.0 101412
06:00+15nnw26737 0.1 1016147
09:00+20n34585 0.0 1016727
12:00+23nnw45425 0.2 10162023
15:00+25nnw563470 0.0 10162371
18:00+24nne563867 0.0 10151874
21:00+18e22605 0.0 101715
18 may, tue
tue1800:00+16nw11638 0.0 101611
03:00+15sw22665 0.0 101516
06:00+16ssw34672 0.0 101581
09:00+23sw46418 0.0 1013665
12:00+27w56325 0.0 10121786
15:00+23wsw474680 0.6 1010528
18:00+24w374037 1.1 1008195
21:00+18sse596970 0.0 1009131
19 may, wed
wed1900:00+18s51066100 0.0 1007262
03:00+17sw226944 0.3 100623
06:00+16wsw3778100 0.3 1006193
09:00+21wnw465572 0.0 10061026
12:00+24wnw693987 0.0 10051972
15:00+21nw5943100 0.1 1004593
18:00+18nnw81066100 0.4 1005880
21:00+10nne9127899 0.2 1010836
20 may, thu
thu2000:00+8n713709 0.3 10131028
03:00+6nnw612765 0.0 1014547
06:00+7nnw49724 0.0 1016429
09:00+11nnw7104496 0.0 10171965
12:00+12nnw811334 0.1 10182399
15:00+13nnw81128100 0.0 10192433
18:00+11nnw8102975 0.0 10212391
21:00+7n59395 0.0 1024306